Regional Weather Roundup
Issued by NWS Little Rock, AR

Home | Current Version | Previous Version | Graphics & Text | Print | Product List | Glossary On
Versions: 1 2 3 4 5 6 7 8 9 10 11 12 13 14 15 16 17 18 19 20 21 22 23 24 25 26 27 28 29 30 31 32 33 34 35 36 37 38 39 40 41 42 43 44 45 46 47 48 49 50
000
ASUS44 KLZK 270805
RWRLZK

WEATHER ROUNDUP FOR ARKANSAS
NATIONAL WEATHER SERVICE LITTLE ROCK AR
300 AM CDT FRI MAR 27 2015

NOTE: "FAIR" INDICATES FEW OR NO CLOUDS BELOW 12,000 FEET WITH NO
SIGNIFICANT WEATHER AND/OR OBSTRUCTIONS TO VISIBILITY.

ARZ001-003-010-029-270900-
NORTHWEST ARKANSAS

CITY           SKY/WX    TMP DP  RH WIND       PRES   REMARKS
FAYETTEVILLE   CLOUDY    39  37  92 CALM      30.07F
FORT SMITH     CLOUDY    47  37  68 CALM      30.08R
HARRISON       CLOUDY    40  34  79 NW3       30.06F
BENTONVILLE    CLOUDY    43  32  65 NE6       30.07S
ROGERS         CLOUDY    42  34  73 N5        30.07F
SILOAM SPGS    CLOUDY    41  30  65 CALM      30.08S
HIGHFILL       CLOUDY    40  35  83 CALM      30.06F
$$

ARZ004-005-016-270900-
NORTH CENTRAL ARKANSAS

CITY           SKY/WX    TMP DP  RH WIND       PRES   REMARKS
BATESVILLE     PTCLDY    37  30  75 NW5       30.07R
FLIPPIN        CLOUDY    39  30  70 CALM      30.07S
MTN HOME       CLOUDY    40  31  70 CALM      30.05F
$$

ARZ040-041-270900-
WEST CENTRAL ARKANSAS

CITY           SKY/WX    TMP DP  RH WIND       PRES   REMARKS
MENA           MOCLDY    43  34  70 W5        30.04S
MOUNT IDA      CLOUDY    41  35  79 CALM      30.02R
$$

ARZ009-017-025-026-028-270900-
NORTHEAST ARKANSAS

CITY           SKY/WX    TMP DP  RH WIND       PRES   REMARKS
CORNING          N/A     39  39 100 NW6       30.07R
JONESBORO      CLEAR     34  34 100 CALM      30.05R
NEWPORT        CLEAR     41  39  92 CALM      30.07R
BLYTHEVILLE    CLEAR     35  35 100 W6        30.04R WCI  30
$$

ARZ022-023-033-042-044-270900-
CENTRAL ARKANSAS

CITY           SKY/WX    TMP DP  RH WIND       PRES   REMARKS
LITTLE ROCK    PTCLDY    41  37  86 CALM      30.04F
N LITTLE ROCK    N/A     42  36  80 NE2       30.04F
SEARCY         CLEAR     36  33  89 N5        30.07S
HOT SPRINGS    CLOUDY    42  39  89 CALM      30.04F
RUSSELLVILLE   CLOUDY    43  37  79 NW5       30.07R
CLINTON        FAIR      37  36  93 CALM      30.11R
$$

ARZ036-270900-
EAST ARKANSAS

CITY           SKY/WX    TMP DP  RH WIND       PRES   REMARKS
WEST MEMPHIS   CLEAR     36  36 100 CALM      30.03S
$$

ARZ050-053-066-070-073-270900-
SOUTHWEST ARKANSAS

CITY           SKY/WX    TMP DP  RH WIND       PRES   REMARKS
ARKADELPHIA    FAIR      42  42 100 CALM      30.05F
CAMDEN         FOG       39  37  93 CALM      30.06F VSB 1/4
TEXARKANA      CLEAR     42  37  82 SW3       30.05F
EL DORADO      CLEAR     38  36  92 CALM      30.07F
$$

ARZ056-057-069-270900-
SOUTHEAST ARKANSAS

CITY           SKY/WX    TMP DP  RH WIND       PRES   REMARKS
PINE BLUFF     PTCLDY    39  39 100 W5        30.06S
STUTTGART      CLEAR     43  39  87 CALM      30.06S
MONTICELLO     CLEAR     39  37  92 CALM      30.05S

$$





USA.gov is the U.S. government's official web portal to all federal, state and local government web resources and services.